Dewpoint
15 12 10 9 12 13 13 7 0 -0 2 -1 4 23 31 32 32 31 32 32 33 34 35 34 33 33 32 31 29 29 29 32 32 32 32 32 32 34 34 35 36 37 37 39
13 12 13 14 14 14 14 13 2 2 3 -1 -2 16 30 31 31 32 32 32 33 33 33 33 33 32 30 30 30 29 29 30 31 32 33 33 33 35 34 34 34 36 36 37
12 13 16 14 14 13 8 5 1 2 2 -2 -3 5 26 31 32 32 32 32 32 32 32 32 32 32 30 28 30 29 29 29 30 31 31 31 31 31 31 32 33 34 34 35
12 13 12 11 11 14 8 2 2 3 0 -1 -1 -2 14 29 30 31 31 31 31 32 32 33 32 31 29 28 29 29 29 28 29 30 29 29 29 29 31 31 32 32 33 33
13 9 9 9 10 9 7 7 4 2 0 -2 -2 -2 8 29 28 29 30 30 31 31 32 32 32 31 29 28 28 28 27 27 29 30 29 29 29 30 31 31 32 31 32 32
10 8 7 9 6 3 6 2 5 4 -2 -2 -1 -2 3 24 27 28 30 30 31 31 31 32 32 32 29 28 27 27 26 26 27 29 29 29 29 29 28 29 30 31 30 31
7 7 4 5 3 4 2 1 0 -0 -3 1 2 -5 -2 22 28 28 28 30 30 31 30 31 31 28 27 26 27 27 26 25 27 28 28 29 30 30 28 28 29 30 30 31
14 11 5 6 4 2 1 3 3 3 1 1 6 -2 0 28 29 29 30 29 30 29 30 31 31 27 26 26 26 27 27 26 27 28 27 28 30 31 30 28 27 28 30 30
12 13 6 5 6 5 3 1 9 5 9 3 2 12 26 29 29 29 29 29 29 28 30 31 29 27 26 27 26 27 27 27 26 27 27 27 28 30 30 30 31 30 31 31
12 8 5 4 4 6 6 9 3 8 -1 -1 2 8 6 26 27 29 28 28 28 29 31 31 27 26 27 28 27 28 28 26 26 27 27 26 27 28 29 30 30 31 30 31
13 9 6 4 2 3 7 5 9 8 8 0 1 4 19 21 28 29 29 29 28 28 30 31 28 27 27 27 26 26 25 25 27 26 26 25 27 28 28 28 28 29 29 30
13 12 6 3 8 7 8 7 10 5 5 13 11 3 26 27 29 30 29 29 28 27 28 29 28 25 24 24 25 24 24 25 26 25 25 25 27 27 27 27 28 27 28 29
12 13 8 6 8 9 3 8 13 14 13 7 3 4 27 30 30 30 29 29 27 27 26 26 26 22 21 22 24 23 24 26 24 24 24 24 25 25 26 27 27 27 27 28
13 17 9 11 10 10 5 7 12 7 4 4 5 5 24 28 29 29 29 27 25 26 24 23 23 21 21 22 23 23 25 24 23 24 22 22 24 25 26 26 26 26 27 27
17 15 13 10 9 9 8 7 12 6 3 4 6 7 13 24 28 28 28 26 24 24 22 22 21 20 19 21 22 22 24 23 23 22 22 22 23 24 26 25 25 25 26 27
21 20 15 10 12 11 8 9 13 12 11 9 10 10 15 23 28 27 26 24 23 22 22 20 19 18 19 20 20 23 22 22 22 21 20 22 22 23 25 24 24 24 25 26
22 21 12 9 12 9 5 8 9 11 14 12 10 12 23 27 27 26 24 23 22 22 21 19 18 18 18 18 22 21 21 21 20 19 20 21 22 22 23 24 22 23 23 24
22 20 16 15 10 10 12 15 11 9 10 14 15 18 23 25 26 24 23 22 22 21 20 17 17 17 17 19 21 21 20 19 19 19 20 20 21 22 22 22 22 23 23 23
27 23 24 21 18 17 16 13 12 9 9 22 19 23 24 23 23 22 23 23 22 19 17 17 16 16 16 18 20 19 19 18 18 18 19 20 21 21 22 22 21 22 22 22
31 31 25 22 18 16 14 17 21 17 9 23 23 23 23 23 21 22 20 18 16 16 17 16 16 16 16 17 19 18 18 17 18 19 20 20 20 20 21 22 21 22 22 21
18 20 18 19 18 18 18 20 19 11 12 25 25 24 24 22 24 22 17 16 16 16 16 16 16 15 16 17 17 17 17 16 18 19 20 19 20 20 21 21 21 20 20 20
15 14 13 18 20 18 22 20 15 20 28 27 26 27 26 22 19 17 16 16 16 15 15 15 16 14 15 16 17 14 14 16 18 19 18 18 19 19 20 20 19 18 19 19
17 19 18 19 20 24 30 23 28 28 27 27 27 28 22 19 16 16 16 16 15 15 14 16 14 14 15 17 16 14 15 17 17 17 17 17 18 18 19 19 19 19 19 19
22 23 19 21 27 28 30 30 29 28 27 28 28 24 20 17 16 16 16 16 14 12 13 16 13 14 14 16 15 16 17 17 17 17 16 16 16 18 17 17 18 18 18 18
22 24 24 26 29 29 29 29 28 28 28 25 23 20 19 17 17 17 16 14 12 12 15 16 16 15 14 15 16 16 16 16 16 16 15 15 15 15 16 16 16 18 18 19
25 23 21 18 28 26 28 29 28 26 24 22 20 19 19 18 17 17 16 14 12 13 15 16 16 14 15 15 14 13 14 15 16 15 14 14 15 14 14 15 14 15 18 17
Wind_Speed
2 3 12 14 8 4 2 2 3 2 4 2 5 11 10 9 15 17 14 12 11 10 6 9 11 11 12 13 15 17 19 17 18 17 18 13 17 17 16 14 17 16 18 17
1 12 16 6 5 4 3 6 5 3 6 0 3 6 7 8 8 10 13 10 9 6 6 7 10 12 14 16 17 18 17 15 13 10 9 5 12 6 11 11 13 15 19 19
10 5 9 10 8 7 4 10 5 4 3 4 2 3 9 4 8 9 8 8 8 7 5 4 7 9 11 14 14 14 13 13 12 12 10 10 6 11 12 17 17 18 17 18
11 10 14 5 6 10 9 7 5 5 2 5 1 10 8 12 14 13 11 10 10 8 5 2 1 4 8 10 10 11 11 12 13 12 14 15 12 14 13 15 15 18 18 20
11 6 9 12 13 14 7 8 6 3 2 1 4 8 3 12 13 17 16 13 11 9 7 5 3 2 4 7 9 9 8 10 11 12 13 14 14 13 13 14 17 15 18 18
8 2 5 5 4 10 15 9 7 5 2 10 14 15 6 11 12 15 14 14 13 11 9 6 3 2 2 3 6 7 14 13 14 15 14 14 14 16 17 17 17 17 17 17
5 8 4 7 8 6 6 12 4 3 6 14 2 11 16 10 11 23 27 19 14 11 10 9 7 2 4 8 10 10 15 17 15 14 14 13 13 11 15 18 17 20 18 18
18 11 17 11 11 10 11 12 10 8 8 5 1 10 6 2 4 11 14 16 12 10 10 8 6 2 4 8 11 11 13 15 15 14 16 14 13 11 12 14 16 16 17 18
12 9 2 3 5 15 8 14 4 3 3 2 6 5 3 6 8 14 16 14 13 10 9 8 4 3 5 6 9 11 13 15 15 14 14 14 13 13 14 15 15 15 17 18
7 4 2 5 6 6 9 14 6 3 7 10 7 8 12 14 20 17 18 17 13 9 9 7 3 1 2 4 7 9 10 12 12 12 12 13 13 13 14 14 16 17 18 19
9 5 2 4 8 14 8 8 3 7 6 7 7 9 7 20 24 27 23 20 16 12 10 9 5 2 3 4 5 6 9 11 11 13 13 16 16 15 15 16 18 18 19 20
14 6 10 12 2 6 6 10 14 13 8 4 2 17 2 8 22 24 24 21 15 13 12 9 7 4 3 3 5 7 10 11 11 14 14 15 14 15 16 16 17 19 20 20
15 9 10 2 3 1 10 8 8 7 5 14 10 14 2 4 17 22 25 17 16 13 10 8 6 4 3 7 7 8 10 10 14 15 15 15 15 16 17 17 18 19 19 19
18 9 22 29 11 7 11 16 17 15 10 12 25 22 6 11 18 19 18 18 16 13 11 8 4 1 4 6 6 8 9 12 15 15 16 16 16 17 17 17 18 19 19 19
10 14 12 5 5 10 8 15 22 22 27 18 25 24 17 22 25 25 17 17 15 12 10 7 5 1 2 5 6 8 8 13 14 15 15 16 17 16 16 17 18 19 18 18
1 11 1 11 5 3 8 7 20 21 9 17 17 25 9 12 13 16 20 19 16 13 9 8 4 4 5 6 7 6 11 13 13 15 16 16 17 17 16 18 19 19 19 19
6 15 12 15 2 4 13 17 16 12 9 14 21 23 9 10 22 25 21 18 16 12 9 6 5 6 6 8 6 9 11 12 13 14 15 16 16 17 17 17 18 19 19 20
3 6 6 7 7 13 7 3 10 21 14 16 6 3 8 9 10 16 15 16 14 11 9 7 8 7 7 8 7 9 11 12 13 14 15 16 17 17 17 17 18 18 18 19
11 6 5 5 14 12 18 7 8 10 12 9 9 11 16 20 15 10 10 9 10 10 11 11 9 7 8 8 7 8 10 11 12 14 15 16 16 17 17 18 19 18 18 19
11 13 13 4 7 14 3 3 3 5 17 12 15 21 26 17 17 9 11 15 16 15 12 10 8 8 9 9 7 8 11 11 14 15 16 16 16 16 16 17 18 17 16 17
12 10 24 21 9 9 8 3 7 9 8 13 19 23 21 11 3 16 18 16 14 14 11 9 9 8 6 7 9 10 11 13 14 15 15 15 15 15 15 16 15 16 17 17
13 15 10 7 10 17 8 6 9 4 4 14 16 13 15 19 20 19 18 17 14 11 8 7 7 6 6 8 9 11 11 13 14 14 15 15 15 15 15 15 15 15 16 16
11 10 12 16 12 2 0 2 2 12 17 12 16 16 23 23 17 17 16 14 11 9 7 7 6 6 8 9 9 12 12 13 15 14 15 15 16 15 14 15 15 14 14 14
4 5 7 9 5 4 3 5 6 12 13 16 20 23 22 20 18 18 15 13 9 7 7 6 6 7 9 9 10 10 12 13 13 13 16 15 17 17 15 14 13 12 14 15
7 15 10 3 1 7 3 5 14 17 18 21 17 17 20 23 18 16 14 11 9 8 7 6 6 7 8 9 10 11 12 13 13 12 14 15 14 16 16 15 14 13 13 15
9 10 14 11 19 7 12 15 18 22 20 20 24 17 12 17 18 17 13 11 10 9 7 6 6 6 7 8 9 11 11 11 11 12 13 14 14 15 14 14 17 18 15 17
Wind_Direction
90 190 224 221 198 125 29 303 254 265 358 237 118 134 157 136 132 138 136 128 113 100 89 60 47 35 28 30 30 26 22 14 15 9 3 355 354 338 344 346 348 353 348 345
140 242 235 202 175 205 268 269 252 301 359 65 96 137 143 153 157 156 149 145 135 121 78 52 41 33 30 29 27 22 18 10 13 358 346 323 307 305 306 327 338 349 343 342
199 187 110 183 211 210 223 204 214 231 7 12 330 229 182 144 138 145 155 154 153 154 126 61 32 21 19 23 17 15 13 7 8 1 356 349 329 340 350 350 346 344 342 345
236 235 242 213 226 186 213 209 186 172 158 255 303 279 218 172 168 172 167 171 170 170 162 164 57 29 20 16 10 11 8 9 10 2 9 12 5 347 331 329 328 334 339 339
223 206 205 215 213 174 199 145 145 126 150 336 213 266 249 156 200 190 183 184 187 189 187 185 178 101 34 15 11 9 4 13 5 6 11 8 357 339 325 326 325 335 337 337
239 250 175 203 122 174 140 102 65 64 77 270 211 206 245 198 213 180 188 193 192 192 193 191 193 196 331 352 3 6 14 13 9 7 357 354 346 339 341 337 337 336 335 337
230 232 188 153 111 106 139 134 219 250 193 239 314 211 258 206 196 182 184 189 192 186 183 179 181 152 26 15 7 8 9 4 359 358 349 338 329 332 343 344 336 336 333 333
204 240 188 192 188 178 185 180 183 214 208 241 151 234 260 224 186 162 164 173 179 178 178 178 168 119 31 15 3 359 357 352 350 352 348 339 330 323 325 338 341 333 332 328
194 239 190 167 146 170 188 214 194 122 75 297 228 268 243 165 161 160 165 179 187 186 184 180 157 59 20 354 346 352 345 341 346 349 343 335 330 326 322 318 319 331 327 328
201 234 227 148 113 54 176 149 145 162 214 240 251 258 233 201 191 182 188 198 196 181 176 174 155 98 355 324 328 335 338 330 331 339 337 336 328 328 327 326 324 319 330 328
163 184 160 141 209 183 151 176 122 160 181 227 260 252 221 212 189 191 198 201 194 189 188 186 184 187 275 294 302 312 336 333 344 345 342 342 338 337 338 336 334 338 330 331
196 173 203 200 265 206 183 190 176 205 213 213 225 266 207 198 193 190 196 199 188 185 182 173 180 193 250 310 310 339 342 348 352 344 341 336 337 339 341 340 335 337 334 335
174 192 215 241 267 155 217 199 173 137 125 215 226 258 8 191 184 192 193 183 175 170 165 169 180 201 333 337 331 338 347 357 350 346 342 341 342 342 340 339 338 336 333 333
162 177 210 226 228 170 201 199 192 190 212 226 237 256 211 202 195 192 184 173 170 171 171 178 170 260 348 338 322 340 358 358 351 347 345 343 344 339 338 339 339 335 333 334
159 209 214 256 227 185 213 203 193 203 222 217 256 238 234 214 204 196 172 165 164 166 168 168 188 212 16 358 0 357 8 356 347 344 341 343 340 339 338 342 339 337 335 335
74 210 4 246 199 231 246 217 203 214 226 236 251 261 217 225 158 168 173 166 168 168 163 165 148 85 45 18 2 18 3 353 348 346 341 341 340 341 344 341 343 338 337 333
177 173 186 235 146 235 271 232 206 209 208 216 236 248 179 181 189 182 165 162 167 159 152 146 105 73 48 15 17 13 357 350 350 346 340 339 341 343 345 341 343 339 338 334
185 145 198 205 151 238 257 240 218 222 232 215 233 233 197 187 123 132 141 153 148 141 136 124 99 74 37 20 29 1 359 355 348 345 339 339 341 342 341 342 343 339 336 333
196 147 226 203 219 280 283 201 182 189 249 200 192 135 124 117 97 83 108 120 133 130 121 106 94 75 45 26 10 1 358 352 347 345 339 337 339 339 341 342 339 338 336 333
196 193 203 172 213 224 243 202 155 119 263 190 158 158 150 146 164 171 131 120 111 107 108 108 89 68 44 15 1 9 0 351 349 342 336 335 339 339 338 339 337 334 334 336
170 171 205 214 227 283 244 199 136 194 256 162 166 162 157 154 131 137 124 107 103 107 105 99 81 63 32 15 18 11 355 355 340 336 335 338 338 337 341 337 338 338 339 339
170 172 194 171 207 249 190 146 189 180 113 156 149 140 118 117 116 120 118 117 114 111 101 97 97 62 33 23 25 8 359 342 339 338 341 340 341 341 342 340 343 344 340 342
190 189 184 185 210 212 349 230 123 157 156 158 139 135 133 130 131 130 129 127 129 125 110 99 92 70 37 20 28 7 349 345 343 344 343 342 342 342 342 343 345 341 341 341
212 165 153 153 207 191 176 131 139 138 133 131 131 137 140 139 138 133 137 136 129 115 105 110 92 61 34 18 15 3 354 345 341 340 342 341 343 344 341 343 340 337 342 340
194 156 141 108 139 119 151 159 138 121 116 114 117 132 137 134 138 141 140 139 131 123 114 105 83 60 32 17 11 1 353 347 347 341 341 340 337 338 335 339 335 334 341 346
187 161 173 207 191 162 172 157 140 134 136 131 127 121 120 137 138 137 138 136 135 129 120 99 77 53 28 19 8 357 351 347 346 346 346 340 339 340 337 340 337 342 358 2